HS2LXA-WX Weather Reports


time (UTC)temp
C
wind
direction
speed
KPH
gust
KPH
rain 1hr
cm
rain 24hr
cm
rain mn
cm
humidity
%
barometer
mb
20260509200816 31 0 0.0 0.0 0.00 0.00 0.00 75 1013.2
20260509195813 31 0 0.0 0.0 0.00 0.00 0.00 74 1013.1
20260509194058 31 0 0.0 0.0 0.00 0.00 0.00 74 1013.2
20260509192800 30 67 0.0 0.0 0.00 0.00 0.00 80 1013.1
20260509191800 28 67 0.0 0.0 0.00 0.00 0.00 89 1013.1
20260509190801 28 67 0.0 0.0 0.00 0.00 0.00 89 1013.1
20260509185425 28 315 0.0 0.0 0.00 0.00 0.00 89 1013.2
20260509183441 28 112 0.0 0.0 0.00 0.00 0.00 89 1013.1
20260509180842 28 0 0.0 0.0 0.00 0.00 0.00 88 1013.2
20260509175844 28 0 0.0 0.0 0.00 0.00 0.00 90 1013.2
20260509174453 28 225 0.0 0.0 0.00 0.00 0.00 90 1013.1
20260509173453 28 112 0.0 0.0 0.00 0.00 0.00 89 1013.1
20260509172452 28 67 0.0 0.0 0.00 0.00 0.00 89 1013.1
20260509171452 28 112 0.0 0.0 0.00 0.00 0.00 90 1013.2
20260509170448 28 112 0.0 0.0 0.00 0.00 0.00 88 1013.2
20260509165448 28 67 0.0 0.0 0.00 0.00 0.00 88 1013.1
20260509164447 28 112 0.0 0.0 0.00 0.00 0.00 89 1013.1
20260509163446 29 67 0.0 0.0 0.00 0.00 0.00 87 1013.1
20260509162447 28 0 0.0 0.0 0.00 0.00 0.00 88 1013.1
20260509161446 29 0 0.0 0.0 0.00 0.00 0.00 88 1013.1
20260509160446 29 112 0.0 0.0 0.00 0.00 0.00 88 1013.2
20260509155446 29 0 0.0 0.0 0.00 0.00 0.00 89 1013.2
20260509154446 29 0 0.0 0.0 0.00 0.00 0.00 88 1013.2
20260509153445 29 0 0.0 0.0 0.00 0.00 0.00 90 1013.1
20260509152446 29 135 0.0 0.0 0.00 0.00 0.00 89 1013.1
20260509151446 29 0 0.0 0.0 0.00 0.00 0.00 90 1013.1
20260509150445 29 0 0.0 0.0 0.00 0.00 0.00 91 1013.2
20260509144604 29 0 0.0 0.0 0.00 0.00 0.00 91 1013.1
20260509143605 29 0 0.0 0.0 0.00 0.00 0.00 88 1013.1
20260509142603 29 0 0.0 0.0 0.00 0.00 0.00 87 1013.2
20260509140558 30 0 0.0 0.0 0.00 0.00 0.00 85 1013.1
20260509134100 30 0 0.0 0.0 0.00 0.00 0.00 84 1013.1
20260509133100 30 0 0.0 0.0 0.00 0.00 0.00 84 1013.1
20260509131153 30 112 0.0 0.0 0.00 0.00 0.00 83 1013.2
20260509130152 30 112 0.0 0.0 0.00 0.00 0.00 82 1013.1
20260509125152 30 112 0.0 0.0 0.00 0.00 0.00 81 1013.2
20260509124152 30 315 0.0 0.0 0.00 0.00 0.00 81 1013.2
20260509123151 30 112 0.0 0.0 0.00 0.00 0.00 80 1013.1
20260509122152 30 315 0.0 0.0 0.00 0.00 0.00 80 1013.1
20260509121143 31 0 0.0 0.0 0.00 0.00 0.00 78 1013.2
20260509120143 31 67 0.0 0.0 0.00 0.00 0.00 78 1013.1
20260509115142 31 315 0.0 0.0 0.00 0.00 0.00 77 1013.2
20260509114143 31 112 0.0 0.0 0.00 0.00 0.00 76 1013.1
20260509113142 31 0 0.0 0.0 0.00 0.00 0.00 74 1013.1
20260509111158 31 67 0.0 0.0 0.00 0.00 0.00 74 1013.2
20260509110157 31 0 0.0 0.0 0.00 0.00 0.00 73 1013.1
20260509104923 32 0 0.0 0.0 0.00 0.00 0.00 72 1013.1
20260509103922 32 67 0.0 0.0 0.00 0.00 0.00 71 1013.1
20260509102922 32 67 0.0 0.0 0.00 0.00 0.00 72 1013.1
20260509101922 32 315 0.0 0.0 0.00 0.00 0.00 73 1013.1
20260509100922 32 0 0.0 0.0 0.00 0.00 0.00 72 1013.2
20260509095923 32 315 0.0 0.0 0.00 0.00 0.00 70 1013.1
20260509094610 33 112 0.0 0.0 0.00 0.00 0.00 72 1013.1
20260509093318 33 112 0.0 0.0 0.00 0.00 0.00 74 1013.2
20260509092318 32 67 9.7 24.1 0.00 0.00 0.00 75 1013.1
20260509091318 33 112 6.4 14.5 0.00 0.00 0.00 75 1013.1
20260509090319 33 0 3.2 8.0 0.00 0.00 0.00 74 1013.1
20260509084833 33 112 3.2 6.4 0.00 0.00 0.00 69 1013.1
20260509083833 33 112 3.2 8.0 0.00 0.00 0.00 65 1013.1
20260509082832 33 112 0.0 0.0 0.00 0.00 0.00 65 1013.1
20260509081831 33 0 0.0 0.0 0.00 0.00 0.00 63 1013.1
20260509080831 33 0 0.0 0.0 0.00 0.00 0.00 63 1013.2
20260509075831 34 315 0.0 0.0 0.00 0.00 0.00 62 1013.1
20260509074829 33 225 0.0 0.0 0.00 0.00 0.00 63 1013.1
20260509073829 35 112 0.0 1.6 0.00 0.00 0.00 60 1013.1
20260509072829 35 202 0.0 0.0 0.00 0.00 0.00 60 1013.1
20260509071010 35 0 0.0 0.0 0.00 0.00 0.00 59 1013.1
20260509070010 35 112 0.0 0.0 0.00 0.00 0.00 59 1013.1
20260509065011 35 225 0.0 0.0 0.00 0.00 0.00 61 1013.2
20260509064011 35 0 0.0 0.0 0.00 0.00 0.00 60 1013.1
20260509063009 35 225 0.0 0.0 0.00 0.00 0.00 61 1013.2
20260509062009 35 225 0.0 0.0 0.00 0.00 0.00 61 1013.1
20260509061009 34 67 0.0 0.0 0.00 0.00 0.00 63 1013.1
20260509055937 35 315 0.0 0.0 0.00 0.00 0.00 60 1013.2
20260509054718 34 0 0.0 0.0 0.00 0.00 0.00 62 1013.1
20260509053718 34 0 0.0 0.0 0.00 0.00 0.00 62 1013.2
20260509051734 34 0 32.2 72.4 0.00 0.00 0.00 64 1013.2
20260509050733 35 67 0.0 0.0 0.00 0.00 0.00 62 1013.1
20260509045732 34 67 0.0 0.0 0.00 0.00 0.00 64 1013.1
20260509044730 34 0 0.0 0.0 0.00 0.00 0.00 63 1013.1
20260509043730 33 0 0.0 0.0 0.00 0.00 0.00 63 1013.1
20260509042731 34 0 0.0 0.0 0.00 0.00 0.00 59 1013.1
20260509034416 33 112 0.0 0.0 0.00 0.00 0.00 63 1013.2
20260509033416 33 0 0.0 0.0 0.00 0.00 0.00 64 1013.1
20260509032416 33 202 1.6 3.2 0.00 0.00 0.00 67 1013.2
20260509031140 32 0 0.0 0.0 0.00 0.00 0.00 66 1013.1
20260509030141 32 270 0.0 0.0 0.00 0.00 0.00 65 1013.1
20260509024415 32 270 0.0 0.0 0.00 0.00 0.00 66 1013.1
20260509023415 32 22 0.0 0.0 0.00 0.00 0.00 68 1013.2
20260509021942 32 0 0.0 0.0 0.00 0.00 0.00 70 1013.1
20260509020943 32 112 0.0 0.0 0.00 0.00 0.00 71 1013.1
20260509015941 31 225 0.0 0.0 0.00 0.00 0.00 72 1013.2
20260509014940 31 0 0.0 0.0 0.00 0.00 0.00 71 1013.2
20260509013707 31 0 0.0 0.0 0.00 0.00 0.00 74 1013.2
20260509012708 31 112 0.0 0.0 0.00 0.00 0.00 75 1013.1
20260509011420 30 270 0.0 0.0 0.00 0.00 0.00 76 1013.1
20260509005938 30 90 0.0 0.0 0.00 0.00 0.00 78 1013.1
20260509004938 30 202 0.0 0.0 0.00 0.00 0.00 79 1013.2
20260509003938 29 90 0.0 0.0 0.00 0.00 0.00 80 1013.1
20260509002939 29 0 0.0 0.0 0.00 0.00 0.00 80 1013.1
20260509001935 29 270 0.0 0.0 0.00 0.00 0.00 81 1013.1
20260509000205 29 90 0.0 0.0 0.00 0.00 0.00 81 1013.2
20260508235205 28 22 0.0 0.0 0.00 0.00 0.00 81 1013.2
20260508234205 28 270 0.0 0.0 0.00 0.00 0.00 82 1013.2
20260508233206 28 112 0.0 0.0 0.00 0.00 0.00 81 1013.1
20260508232205 28 270 0.0 0.0 0.00 0.00 0.00 80 1013.1
20260508231203 28 112 0.0 0.0 0.00 0.00 0.00 81 1013.1
20260508230203 28 112 0.0 0.0 0.00 0.00 0.00 81 1013.2
20260508225202 28 270 0.0 0.0 0.00 0.00 0.00 80 1013.1
20260508224202 28 270 0.0 0.0 0.00 0.00 0.00 80 1013.1
20260508223202 29 270 0.0 0.0 0.00 0.00 0.00 80 1013.2
20260508222201 29 270 0.0 0.0 0.00 0.00 0.00 79 1013.1
20260508221201 29 270 0.0 0.0 0.00 0.00 0.00 80 1013.1
20260508220201 29 112 0.0 0.0 0.00 0.00 0.00 79 1013.1
20260508215200 29 270 0.0 0.0 0.00 0.00 0.00 79 1013.1
20260508214201 29 270 0.0 0.0 0.00 0.00 0.00 79 1013.2
20260508213159 29 270 0.0 0.0 0.00 0.00 0.00 80 1013.1
20260508212159 28 270 0.0 0.0 0.00 0.00 0.00 83 1013.1
20260508211200 27 112 0.0 0.0 0.00 0.00 0.00 88 1013.1
20260508204407 28 112 0.0 0.0 0.00 0.00 0.00 87 1013.1
20260508203407 27 270 0.0 0.0 0.00 0.00 0.00 88 1013.1
20260508201934 27 112 0.0 0.0 0.00 0.00 0.00 88 1013.2